Location: Unspecified
(0.0000°N, 0.0000°E)
Time: 06:31:16
(UTC+00:00)

Vanguard 3 - Pass Details

Date: 21 November 2019
Orbit: 508 x 3263 km, 33.3° (Epoch: 11 December)

Event Time Altitude Azimuth Distance (km) Brightness Sun altitude
Rises 23:30:13 0° 274° (W) 3,940 - -69.6°
Reaches altitude 10° 23:35:13 10° 246° (WSW) 2,424 - -69.8°
Maximum altitude 23:37:21 12° 222° (SW) 2,063 - -69.9°
Drops below altitude 10° 23:39:15 10° 198° (SSW) 2,048 - -69.9°
Sets 23:42:38 0° 164° (SSE) 2,718 - -70.0°
